Regional Weather Roundup
Issued by NWS New Orleans/Baton Rouge, LA

Home | Current Version | Previous Version | Graphics & Text | Print | Product List | Glossary On
Versions: 1 2 3 4 5 6 7 8 9 10 11 12 13 14 15 16 17 18 19 20 21 22 23 24 25 26 27 28 29 30 31 32 33 34 35 36 37 38 39 40 41 42 43 44 45 46 47 48 49 50
462
ASUS44 KLIX 191301
RWRLIX
NEW ORLEANS REGIONAL WEATHER ROUNDUP
NATIONAL WEATHER SERVICE NEW ORLEANS LA
800 AM CDT FRI SEP 19 2014

NOTE: "FAIR" INDICATES FEW OR NO CLOUDS BELOW 12,000 FEET WITH NO
      SIGNIFICANT WEATHER AND/OR OBSTRUCTIONS TO VISIBILITY.
      SKY/WX - SKY CONDITION AND SIGNIFICANT WEATHER.
      TMP - AIR TEMPERATURE.     DP    - DEWPOINT TEMPERATURE.
      RH  - RELATIVE HUMIDITY.   PRES  - PRESSURE.
      HI  - HEAT INDEX.          WCI   - WIND CHILL INDEX.

*  THESE STATIONS ARE NOT NWS OR FAA STATIONS AND ARE NOT UNDER
   NWS QUALITY CONTROL.

LAZ038-040-048-061>063-065>067-069-191400-
SOUTHEAST LOUISIANA

CITY           SKY/WX    TMP DP  RH WIND       PRES   REMARKS
N.O. AUDUBON     N/A     76  73  90 MISG        N/A
N.O. INTL ARPT PTSUNNY   76  69  79 SE3       29.95R
N.O. LAKEFRONT CLOUDY    77  69  76 E16       29.95R
N.O. DOWNTOWN* CLOUDY    77  68  73 SE6       29.95R
SLIDELL        PTSUNNY   73  69  87 NE3       29.96R
BATON ROUGE    PTSUNNY   71  69  93 NE6       29.95R
BOOTHVILLE     CLOUDY    76  71  85 E13       29.95R
BELLE CHASSE   CLOUDY    77  69  76 SE8       29.94R
BOGALUSA*        N/A     73  69  86 CALM      29.99R
GALLIANO*      NOT AVBL
NEW ROADS*       N/A     72  70  93 CALM      29.95R
GONZALES*        N/A     73  72  99 CALM      29.94R
HAMMOND*       NOT AVBL
HOUMA*         PTSUNNY   73  68  83 E5        29.94R
PORT FOURCHON* CLOUDY    77  72  83 E17G23    29.95S

$$

MSZ070-080>082-191400-
SOUTHERN MISSISSIPPI

CITY           SKY/WX    TMP DP  RH WIND       PRES   REMARKS
MCCOMB         SUNNY     70  68  93 E6        29.98R
GULFPORT       CLOUDY    73  70  90 N5        29.96R
BILOXI         CLOUDY    74  71  90 NE5       29.96R
PASCAGOULA     CLOUDY    72  70  93 CALM      29.96R
STENNIS ARPT*  MOSUNNY   72  66  83 CALM      29.96R

$$

COASTAL OBSERVATIONS
LAKE AND NEARSHORE STATIONS

STATION/POSITION TIME  TEMP    WIND        PRES    WAVE
                       AIR SEA DIR/SP/G            HT/PER
                 (UTC) (F)     (DEG/KT/KT) (MB)    (FT/S)
PASCAGOULA       1200   76     120/  6/  8 1013.8
WAVELAND YACHT   1200   76      60/  9/ 10 1013.6
GRAND ISLE       1200   76 86  100/ 14/ 21 1013.7
SOUTHWEST PASS   1200   76 90   80/ 23/ 25 1013.6
NEW CANAL        1200   76 81   CALM  /  2 1014.2
SHELL BEACH      1200   78 79   80/ 12/ 15 1013.7

OFFSHORE STATIONS

STATION/POSITION TIME  TEMP    WIND        PRES    WAVE
                       AIR SEA DIR/SP/G            HT/PER
                 (UTC) (F)     (DEG/KT/KT) (MB)    (FT/S)
64 S DAUPHIN ISL 1203   78 84   90/ 10/ 14 1014.2    2/ 4

$$




USA.gov is the U.S. government's official web portal to all federal, state and local government web resources and services.